Miles City, MT

7:47 AM MDT on March 27, 2017 (GMT -0600)
Wiley

Weather History for KMLS - December, 2012

Change the Weather History Date:

Friday, December 14, 2012

  Actual Average Record
Temperature  
Mean Temperature 25 °F 20 °F  
Max Temperature 33 °F 31 °F 56 °F (1939)
Min Temperature 17 °F 10 °F -24 °F (1963)
Degree Days  
Heating Degree Days 40 45  
Month to date heating degree days 472 603  
Since 1 July heating degree days 2073 2402  
Cooling Degree Days 0 0  
Month to date cooling degree days 0 0  
Year to date cooling degree days 1107 730  
Moisture  
Dew Point 24 °F    
Average Humidity 90    
Maximum Humidity 96    
Minimum Humidity 84    
Precipitation  
Precipitation 0.00 in 0.01 in 0.11 in (1982)
Month to date precipitation 0.15 0.11  
Year to date precipitation 6.11 12.26  
Sea Level Pressure  
Sea Level Pressure 29.71 in    
Wind  
Wind Speed 4 mph (NNE)    
Max Wind Speed 9 mph    
Max Gust Speed 10 mph    
Visibility 6 miles    
Events Fog    
T = Trace of Precipitation, MM = Missing Value Source: NWS Daily Summary

Daily Weather History Graph

Daily Weather History Graph

Search for Another Location

Airport or City:

Trip Planner

Search our weather history database for the weather conditions in past years. The results will help you decide how hot, cold, wet, or windy it might be!

Date:

Astronomy

Dec. 14, 2012 Rise Set
Actual Time 7:40 AM MST 4:17 PM MST
Civil Twilight 7:05 AM MST 4:51 PM MST
Nautical Twilight 6:26 AM MST 5:30 PM MST
Astronomical Twilight 5:50 AM MST 6:06 PM MST
Moon 8:43 AM MST (12/14) 6:16 PM MST (12/14)
Length of Visible Light 9h 46m
Length of Day
8h 36m
Waxing Crescent, 3% of the Moon is Illuminated
Dec 14
Waxing Crescent
Dec 19
First Quarter
Dec 28
Full
Jan 4
Last Quarter
Jan 11
New

Hourly Weather History & Observations

Time (MST) Temp. Windchill Dew Point Humidity Pressure Visibility Wind Dir Wind Speed Gust Speed Precip Events Conditions
12:18 AM 23.0 °F - 19.4 °F 86% 29.77 in 0.2 mi Calm Calm - N/A Fog Light Freezing Fog
12:53 AM 24.1 °F - 21.9 °F 91% 29.84 in 0.2 mi Calm Calm - N/A Fog Light Freezing Fog
1:49 AM 21.2 °F 16.4 °F 19.4 °F 93% 29.75 in 1.0 mi SSE 3.5 mph - N/A   Mist
1:50 AM 21.9 °F 17.2 °F 19.0 °F 89% 29.83 in 1.0 mi SSE 3.5 mph - N/A   Mist
1:54 AM 21.2 °F - 19.4 °F 93% 29.75 in 2.0 mi Calm Calm - N/A   Scattered Clouds
2:11 AM 21.2 °F 13.6 °F 17.6 °F 86% 29.75 in 6.0 mi SSE 5.8 mph - N/A   Clear
2:53 AM 23.0 °F 14.7 °F 19.0 °F 85% 29.83 in 10.0 mi SSE 6.9 mph - N/A   Clear
3:06 AM 21.2 °F 12.6 °F 17.6 °F 86% 29.74 in 1.5 mi South 6.9 mph - N/A   Clear
3:18 AM 21.2 °F 12.6 °F 17.6 °F 86% 29.74 in 4.0 mi South 6.9 mph - N/A   Clear
3:53 AM 21.9 °F 14.5 °F 19.0 °F 89% 29.81 in 10.0 mi South 5.8 mph - N/A   Clear
4:53 AM 21.9 °F - 18.0 °F 85% 29.80 in 10.0 mi Calm Calm - N/A   Clear
5:53 AM 21.0 °F 14.6 °F 17.1 °F 85% 29.81 in 10.0 mi South 4.6 mph - N/A   Clear
6:53 AM 19.9 °F - 16.0 °F 85% 29.80 in 10.0 mi Calm Calm - N/A   Clear
7:53 AM 18.0 °F 12.7 °F 14.0 °F 84% 29.80 in 10.0 mi SSE 3.5 mph - N/A   Clear
8:53 AM 23.0 °F 14.7 °F 19.9 °F 88% 29.80 in 10.0 mi SSE 6.9 mph - N/A   Clear
9:53 AM 25.0 °F 18.1 °F 21.9 °F 88% 29.79 in 10.0 mi SSE 5.8 mph - N/A   Clear
10:53 AM 28.9 °F - 25.0 °F 85% 29.77 in 10.0 mi Calm Calm - N/A   Clear
11:53 AM 30.9 °F - 27.0 °F 85% 29.73 in 10.0 mi Calm Calm - N/A   Clear
12:25 PM 32.0 °F 27.5 °F 28.4 °F 87% 29.64 in 2.5 mi East 4.6 mph - N/A   Partly Cloudy
12:28 PM 30.2 °F 25.4 °F 28.4 °F 93% 29.63 in 0.8 mi ENE 4.6 mph - N/A   Mist
12:37 PM 30.2 °F - 28.4 °F 93% 29.63 in 0.2 mi Calm Calm - N/A Fog Light Freezing Fog
12:48 PM 32.0 °F - 30.2 °F 93% 29.63 in 1.0 mi Calm Calm - N/A   Overcast
12:53 PM 32.0 °F - 30.0 °F 92% 29.71 in 2.0 mi Calm Calm - N/A   Overcast
1:05 PM 32.0 °F - 30.2 °F 93% 29.63 in 9.0 mi Calm Calm - N/A   Mostly Cloudy
1:25 PM 33.8 °F 28.6 °F 30.2 °F 87% 29.61 in 8.0 mi NE 5.8 mph - N/A   Scattered Clouds
1:38 PM 32.0 °F 27.5 °F 28.4 °F 87% 29.61 in 1.8 mi NNE 4.6 mph - N/A   Scattered Clouds
1:41 PM 32.0 °F 26.4 °F 28.4 °F 87% 29.61 in 0.8 mi North 5.8 mph - N/A   Mist
1:53 PM 32.0 °F 26.4 °F 28.9 °F 88% 29.69 in 0.5 mi North 5.8 mph - N/A Fog Fog
1:56 PM 32.0 °F 26.4 °F 30.2 °F 93% 29.61 in 2.0 mi NNE 5.8 mph - N/A   Mostly Cloudy
2:18 PM 32.0 °F 27.5 °F 28.4 °F 87% 29.60 in 5.0 mi NNE 4.6 mph - N/A   Scattered Clouds
2:53 PM 33.1 °F 30.0 °F 30.0 °F 89% 29.68 in 10.0 mi NNE 3.5 mph - N/A   Clear
3:53 PM 30.0 °F 24.1 °F 28.0 °F 92% 29.69 in 5.0 mi North 5.8 mph - N/A   Clear
4:06 PM 28.4 °F 24.6 °F 26.6 °F 93% 29.61 in 4.0 mi North 3.5 mph - N/A   Partly Cloudy
4:16 PM 28.4 °F 23.3 °F 26.6 °F 93% 29.61 in 1.8 mi North 4.6 mph - N/A   Scattered Clouds
4:18 PM 28.4 °F 23.3 °F 26.6 °F 93% 29.61 in 0.8 mi North 4.6 mph - N/A   Mist
4:31 PM 26.6 °F 22.6 °F 24.8 °F 93% 29.61 in 2.5 mi North 3.5 mph - N/A   Scattered Clouds
4:38 PM 26.6 °F 22.6 °F 24.8 °F 93% 29.62 in 7.0 mi NNW 3.5 mph - N/A   Scattered Clouds
4:53 PM 26.1 °F 21.9 °F 24.1 °F 92% 29.72 in 10.0 mi North 3.5 mph - N/A   Clear
5:53 PM 26.1 °F 20.5 °F 23.0 °F 88% 29.71 in 10.0 mi North 4.6 mph - N/A   Clear
6:51 PM 24.8 °F 19.1 °F 23.0 °F 93% 29.64 in 1.8 mi WNW 4.6 mph - N/A   Clear
6:53 PM 24.1 °F 18.2 °F 21.9 °F 91% 29.74 in 1.8 mi NW 4.6 mph - N/A   Clear
7:00 PM 24.8 °F 16.1 °F 21.2 °F 86% 29.64 in 3.0 mi WNW 8.1 mph - N/A   Clear
7:53 PM 25.0 °F 17.1 °F 23.0 °F 92% 29.74 in 10.0 mi North 6.9 mph - N/A   Clear
8:53 PM 23.0 °F 17.0 °F 19.9 °F 88% 29.75 in 10.0 mi NNW 4.6 mph - N/A   Clear
9:53 PM 23.0 °F 13.9 °F 21.0 °F 92% 29.77 in 10.0 mi NW 8.1 mph - N/A   Clear
10:53 PM 26.1 °F 19.4 °F 23.0 °F 88% 29.77 in 10.0 mi WNW 5.8 mph - N/A   Overcast
11:53 PM 24.1 °F 14.4 °F 21.0 °F 88% 29.78 in 9.0 mi NW 9.2 mph - N/A   Clear